Tracking 30115 objects as of 17-Jan-2025
HD Live streaming from Space Station
objects crossing your sky now

ASAP-S

Track ASAP-S now!
10-day predictions
ASAP-S is classified as:


NORAD ID: 38013
Int'l Code: 2011-076G
Perigee: 530.8 km
Apogee: 544.1 km
Inclination: 98.0 °
Period: 95.2 minutes
Semi major axis: 6908 km
RCS: 2.764 m2 (large)
Launch date: December 17, 2011
Source: France (FR)
Launch site: FRENCH GUIANA (FRGUI)
Your satellite tracking list
Your tracking list is empty




NASA's NSSDC Master Catalog

Two Line Element Set (TLE):
1 38013U 11076G   25016.64792330  .00011118  00000-0  65173-3 0  9995
2 38013  98.0426 270.5528 0009678 123.2643 236.9515 15.11930414714446
Source of the keplerian elements: AFSPC